DW9936 Weather Reports


time (UTC)temp
C
wind
direction
speed
KPH
gust
KPH
rain 1hr
cm
rain 24hr
cm
rain mn
cm
humidity
%
barometer
mb
20260508010026 10 315 0.0 0.0 0.00 0.00 0.00 78 1015.8
20260508004531 10 323 0.0 0.0 0.00 0.00 0.00 79 1015.8
20260508003018 10 324 0.0 0.0 0.00 0.00 0.00 77 1015.9
20260508001515 10 324 0.0 0.0 0.00 0.00 0.00 76 1015.8
20260508000012 11 324 0.0 0.0 0.00 0.00 0.00 74 1015.8
20260507234515 11 324 0.0 0.0 0.00 0.00 0.00 73 1015.9
20260507233012 12 324 0.0 0.0 0.00 0.00 0.00 72 1016.0
20260507231503 12 324 0.0 0.0 0.00 0.00 0.00 70 1016.0
20260507230104 12 331 0.0 0.0 0.00 0.00 0.00 69 1015.9
20260507224558 13 331 0.0 0.0 0.00 0.00 0.00 68 1015.8
20260507223055 13 331 0.0 0.0 0.00 0.00 0.00 68 1015.6
20260507221558 13 331 0.0 0.0 0.00 0.00 0.00 66 1015.5
20260507220052 14 332 0.0 1.6 0.00 0.00 0.00 66 1015.4
20260507214550 14 344 0.0 0.0 0.00 0.00 0.00 66 1015.3
20260507213047 14 334 0.0 0.0 0.00 0.00 0.00 66 1015.2
20260507211556 14 327 0.0 0.0 0.00 0.00 0.00 66 1015.0
20260507210048 15 316 0.0 0.0 0.00 0.00 0.00 65 1014.9
20260507204543 15 240 0.0 0.0 0.00 0.00 0.00 66 1014.8
20260507203042 15 242 0.0 0.0 0.00 0.00 0.00 65 1014.6
20260507201540 15 350 0.0 4.8 0.00 0.00 0.00 64 1014.4
20260507200041 16 197 0.0 9.7 0.00 0.00 0.00 62 1014.3
20260507194539 16 285 0.0 1.6 0.00 0.00 0.00 60 1014.1
20260507193035 16 175 0.0 1.6 0.00 0.00 0.00 60 1013.9
20260507191533 16 228 0.0 4.8 0.00 0.00 0.00 58 1013.6
20260507190036 17 182 0.0 3.2 0.00 0.00 0.00 55 1013.4
20260507184529 17 319 0.0 9.7 0.00 0.00 0.00 54 1013.3
20260507183031 17 194 0.0 4.8 0.00 0.00 0.00 53 1013.1
20260507181526 17 246 0.0 3.2 0.00 0.00 0.00 52 1012.9
20260507180024 18 195 0.0 4.8 0.00 0.00 0.00 51 1012.6
20260507174541 18 226 0.0 4.8 0.00 0.00 0.00 48 1012.4
20260507173025 18 317 0.0 3.2 0.00 0.00 0.00 48 1012.2
20260507171530 18 333 0.0 3.2 0.00 0.00 0.00 47 1012.0
20260507170025 19 324 1.6 8.0 0.00 0.00 0.00 47 1011.8
20260507164524 19 171 0.0 4.8 0.00 0.00 0.00 46 1011.6
20260507163023 20 331 1.6 8.0 0.00 0.00 0.00 45 1011.6
20260507161521 20 182 1.6 8.0 0.00 0.00 0.00 44 1011.5
20260507160020 20 159 0.0 9.7 0.00 0.00 0.00 43 1011.5
20260507154521 20 360 0.0 8.0 0.00 0.00 0.00 43 1011.5
20260507153024 20 30 0.0 6.4 0.00 0.00 0.00 42 1011.4
20260507151518 20 300 0.0 8.0 0.00 0.00 0.00 41 1011.2
20260507150018 21 300 0.0 6.4 0.00 0.00 0.00 41 1011.2
20260507144519 21 342 0.0 8.0 0.00 0.00 0.00 39 1011.1
20260507143018 22 281 0.0 14.5 0.00 0.00 0.00 37 1011.0
20260507141516 23 140 0.0 4.8 0.00 0.00 0.00 36 1010.8
20260507140032 23 315 1.6 14.5 0.00 0.00 0.00 36 1010.8
20260507134516 23 139 3.2 14.5 0.00 0.00 0.00 36 1010.9
20260507133015 22 355 1.6 14.5 0.00 0.00 0.00 37 1011.0
20260507131522 22 318 3.2 12.9 0.00 0.00 0.00 38 1011.2
20260507130014 22 191 1.6 14.5 0.00 0.00 0.00 39 1011.2
20260507124517 23 316 1.6 9.7 0.00 0.00 0.00 36 1011.2
20260507123010 23 38 0.0 16.1 0.00 0.00 0.00 36 1011.2
20260507121509 23 136 0.0 4.8 0.00 0.00 0.00 38 1011.4
20260507120008 22 278 0.0 8.0 0.00 0.00 0.00 37 1011.4
20260507114505 22 140 0.0 17.7 0.00 0.00 0.00 38 1011.7
20260507113005 22 182 0.0 12.9 0.00 0.00 0.00 41 1011.7
20260507111501 21 200 1.6 9.7 0.00 0.00 0.00 41 1011.9
20260507110059 21 20 3.2 14.5 0.00 0.00 0.00 43 1011.9
20260507104606 20 208 0.0 14.5 0.00 0.00 0.00 47 1012.1
20260507103054 20 192 1.6 14.5 0.00 0.00 0.00 46 1012.2
20260507101555 20 23 0.0 6.4 0.00 0.00 0.00 47 1012.1
20260507100056 20 328 0.0 6.4 0.00 0.00 0.00 50 1012.3
20260507094550 19 236 1.6 4.8 0.00 0.00 0.00 49 1012.3
20260507093048 18 214 1.6 6.4 0.00 0.00 0.00 51 1012.3
20260507091549 18 254 0.0 6.4 0.00 0.00 0.00 50 1012.2
20260507090046 18 253 0.0 8.0 0.00 0.00 0.00 49 1012.1
20260507084555 18 219 1.6 8.0 0.00 0.00 0.00 48 1012.0
20260507083042 19 360 0.0 6.4 0.00 0.00 0.00 52 1011.9
20260507081539 18 192 0.0 9.7 0.00 0.00 0.00 53 1011.9
20260507080036 17 321 0.0 4.8 0.00 0.00 0.00 55 1011.8
20260507074535 17 336 0.0 8.0 0.00 0.00 0.00 56 1011.7
20260507073033 17 191 0.0 4.8 0.00 0.00 0.00 57 1011.7
20260507071536 16 178 0.0 11.3 0.00 0.00 0.00 58 1011.6
20260507070030 16 313 0.0 4.8 0.00 0.00 0.00 58 1011.5
20260507064533 16 345 0.0 8.0 0.00 0.00 0.00 59 1011.5
20260507063029 16 239 0.0 6.4 0.00 0.00 0.00 61 1011.4
20260507061535 15 216 0.0 6.4 0.00 0.00 0.00 62 1011.4
20260507060035 15 252 0.0 9.7 0.00 0.00 0.00 65 1011.3
20260507054535 14 241 0.0 4.8 0.00 0.00 0.00 68 1011.2
20260507053022 13 336 0.0 3.2 0.00 0.00 0.00 71 1011.0
20260507051519 13 310 0.0 4.8 0.00 0.00 0.00 71 1011.0
20260507050036 13 275 0.0 0.0 0.00 0.00 0.00 73 1010.8
20260507044520 13 219 0.0 1.6 0.00 0.00 0.00 74 1010.7
20260507043010 13 214 0.0 3.2 0.00 0.00 0.00 74 1010.5
20260507041508 13 281 0.0 1.6 0.00 0.00 0.00 74 1010.2
20260507040006 13 277 0.0 0.0 0.00 0.00 0.00 74 1010.1
20260507034505 13 219 0.0 1.6 0.00 0.00 0.00 73 1010.0
20260507033001 13 232 0.0 4.8 0.00 0.00 0.00 73 1009.9
20260507031558 13 107 0.0 4.8 0.00 0.00 0.00 72 1009.7
20260507030056 13 216 0.0 4.8 0.00 0.00 0.00 72 1009.5
20260507024554 14 355 0.0 3.2 0.00 0.00 0.00 72 1009.4
20260507023051 14 206 0.0 1.6 0.00 0.00 0.00 72 1009.1
20260507021558 14 248 0.0 6.4 0.00 0.00 0.00 72 1009.1
20260507020048 14 277 0.0 6.4 0.00 0.00 0.00 71 1009.0
20260507014547 14 207 0.0 3.2 0.00 0.00 0.00 72 1008.8
20260507013044 15 164 0.0 8.0 0.00 0.00 0.00 71 1008.7
20260507011545 15 109 0.0 4.8 0.00 0.00 0.00 71 1008.5